Weather History for Luverne, MN

Change the Weather History Date:

Saturday, June 29, 2013

  Actual Average (KFSD) Record (KFSD)
Temperature  
Mean Temperature 69 °F 72 °F  
Max Temperature 78 °F 83 °F 101 °F (2002)
Min Temperature 60 °F 60 °F 42 °F (1950)
Degree Days  
Heating Degree Days 0 0  
Month to date heating degree days 52  
Since 1 June heating degree days 52  
Since 1 July heating degree days 7707  
Cooling Degree Days 4 7  
Month to date cooling degree days 128  
Year to date cooling degree days 164  
Since 1 June cooling degree days 128  
Growing Degree Days 19 (Base 50)    
Moisture  
Dew Point 54 °F    
Average Humidity 58    
Maximum Humidity 82    
Minimum Humidity 34    
Precipitation  
Precipitation 0.00 in 0.12 in 2.68 in (1997)
Month to date precipitation 3.80  
Year to date precipitation 13.13  
Snow  
Snow 0.00 in 0.00 in 0.00 in ()
Month to date snowfall 0.0  
Since 1 June snowfall 0.0  
Since 1 July snowfall 44.5  
Snow Depth -    
Sea Level Pressure  
Sea Level Pressure 29.95 in    
Wind  
Wind Speed 11 mph (North)    
Max Wind Speed 22 mph    
Max Gust Speed 31 mph    
Visibility 10 miles    
Events      
T = Trace of Precipitation, MM = Missing Value Source: NWS Daily Summary

Daily Weather History Graph

Daily Weather History Graph

Search for Another Location

Airport:

Trip Planner

Search our weather history database for the weather conditions in past years. The results will help you decide how hot, cold, wet, or windy it might be!

Date:

Astronomy

Jun. 29, 2013 Rise Set
Actual Time 5:46 AM CDT 9:10 PM CDT
Civil Twilight 5:10 AM CDT 9:46 PM CDT
Nautical Twilight 4:23 AM CDT 10:32 PM CDT
Astronomical Twilight 3:25 AM CDT 11:31 PM CDT
Moon 12:26 AM CDT (6/29) 1:13 PM CDT (6/29)
Length of Visible Light 16h 35m
Length of Day
15h 23m
Waning Gibbous, 55% of the Moon is Illuminated
Jun 29
Waning Gibbous
Jun 29
Last Quarter
Jul 8
New
Jul 15
First Quarter
Jul 22
Full

Hourly Weather History & Observations

Time (CDT) Temp. Dew Point Humidity Pressure Visibility Wind Dir Wind Speed Gust Speed Precip Events Conditions
12:13 AM 66.2 °F 55.4 °F 68% 29.91 in 10.0 mi NW 8.1 mph - N/A   Clear
12:34 AM 64.4 °F 55.4 °F 73% 29.92 in 10.0 mi NW 9.2 mph - N/A   Clear
12:53 AM 64.4 °F 55.4 °F 73% 29.91 in 10.0 mi NW 8.1 mph - N/A   Clear
1:13 AM 66.2 °F 53.6 °F 64% 29.91 in 10.0 mi NW 8.1 mph - N/A   Clear
1:33 AM 64.4 °F 53.6 °F 68% 29.90 in 10.0 mi NW 8.1 mph - N/A   Clear
1:53 AM 64.4 °F 53.6 °F 68% 29.90 in 10.0 mi NW 9.2 mph - N/A   Clear
2:14 AM 64.4 °F 53.6 °F 68% 29.91 in 10.0 mi NW 9.2 mph - N/A   Clear
2:33 AM 64.4 °F 55.4 °F 73% 29.91 in 10.0 mi NW 8.1 mph - N/A   Clear
2:54 AM 62.6 °F 55.4 °F 77% 29.90 in 10.0 mi NW 9.2 mph - N/A   Clear
3:14 AM 62.6 °F 55.4 °F 77% 29.90 in 10.0 mi NW 6.9 mph - N/A   Clear
3:33 AM 62.6 °F 55.4 °F 77% 29.90 in 10.0 mi NW 6.9 mph - N/A   Clear
3:54 AM 62.6 °F 55.4 °F 77% 29.90 in 10.0 mi NW 6.9 mph - N/A   Clear
4:14 AM 62.6 °F 55.4 °F 77% 29.91 in 10.0 mi NW 8.1 mph - N/A   Clear
4:33 AM 62.6 °F 55.4 °F 77% 29.91 in 10.0 mi NW 8.1 mph - N/A   Clear
4:54 AM 62.6 °F 55.4 °F 77% 29.91 in 10.0 mi NW 8.1 mph - N/A   Clear
5:14 AM 60.8 °F 55.4 °F 82% 29.91 in 10.0 mi NW 8.1 mph - N/A   Clear
5:33 AM 62.6 °F 55.4 °F 77% 29.92 in 10.0 mi NNW 8.1 mph - N/A   Clear
5:54 AM 62.6 °F 55.4 °F 77% 29.92 in 10.0 mi NNW 8.1 mph - N/A   Clear
6:14 AM 62.6 °F 55.4 °F 77% 29.92 in 10.0 mi NNW 9.2 mph - N/A   Clear
6:33 AM 62.6 °F 55.4 °F 77% 29.92 in 10.0 mi NNW 11.5 mph - N/A   Clear
6:54 AM 64.4 °F 55.4 °F 73% 29.93 in 10.0 mi NNW 10.4 mph - N/A   Clear
7:13 AM 64.4 °F 57.2 °F 77% 29.93 in 10.0 mi NNW 13.8 mph 20.7 mph N/A   Clear
7:34 AM 64.4 °F 57.2 °F 77% 29.92 in 10.0 mi NNW 15.0 mph 24.2 mph N/A   Clear
7:54 AM 68.0 °F 57.2 °F 68% 29.93 in 10.0 mi NNW 15.0 mph 23.0 mph N/A   Clear
8:13 AM 68.0 °F 57.2 °F 68% 29.93 in 10.0 mi NNW 19.6 mph 25.3 mph N/A   Clear
8:34 AM 68.0 °F 59.0 °F 73% 29.93 in 10.0 mi NNW 18.4 mph 24.2 mph N/A   Clear
8:53 AM 68.0 °F 57.2 °F 68% 29.94 in 10.0 mi North 20.7 mph 25.3 mph N/A   Scattered Clouds
9:13 AM 68.0 °F 57.2 °F 68% 29.94 in 10.0 mi North 20.7 mph 29.9 mph N/A   Mostly Cloudy
9:34 AM 69.8 °F 57.2 °F 64% 29.94 in 10.0 mi North 20.7 mph 28.8 mph N/A   Mostly Cloudy
9:53 AM 69.8 °F 57.2 °F 64% 29.95 in 10.0 mi North 18.4 mph 26.5 mph N/A   Mostly Cloudy
10:13 AM 71.6 °F 55.4 °F 57% 29.95 in 10.0 mi North 17.3 mph 31.1 mph N/A   Scattered Clouds
10:34 AM 69.8 °F 55.4 °F 60% 29.96 in 10.0 mi North 20.7 mph 27.6 mph N/A   Scattered Clouds
10:53 AM 71.6 °F 55.4 °F 57% 29.96 in 10.0 mi North 20.7 mph 28.8 mph N/A   Scattered Clouds
11:13 AM 71.6 °F 55.4 °F 57% 29.96 in 10.0 mi North 19.6 mph 29.9 mph N/A   Scattered Clouds
11:34 AM 73.4 °F 55.4 °F 53% 29.96 in 10.0 mi North 21.9 mph 27.6 mph N/A   Scattered Clouds
11:53 AM 73.4 °F 55.4 °F 53% 29.96 in 10.0 mi North 16.1 mph 28.8 mph N/A   Scattered Clouds
12:14 PM 73.4 °F 55.4 °F 53% 29.97 in 10.0 mi North 12.7 mph 26.5 mph N/A   Scattered Clouds
12:34 PM 73.4 °F 55.4 °F 53% 29.97 in 10.0 mi North 15.0 mph 23.0 mph N/A   Scattered Clouds
12:53 PM 73.4 °F 53.6 °F 50% 29.97 in 10.0 mi North 15.0 mph 23.0 mph N/A   Scattered Clouds
1:14 PM 75.2 °F 53.6 °F 47% 29.97 in 10.0 mi NNE 10.4 mph 20.7 mph N/A   Scattered Clouds
1:34 PM 77.0 °F 51.8 °F 41% 29.97 in 10.0 mi NNE 16.1 mph 24.2 mph N/A   Scattered Clouds
1:53 PM 77.0 °F 50.0 °F 39% 29.97 in 10.0 mi NNE 11.5 mph 25.3 mph N/A   Mostly Cloudy
2:14 PM 77.0 °F 51.8 °F 41% 29.97 in 10.0 mi North 15.0 mph 24.2 mph N/A   Scattered Clouds
2:33 PM 75.2 °F 51.8 °F 44% 29.97 in 10.0 mi North 15.0 mph 27.6 mph N/A   Mostly Cloudy
2:53 PM 77.0 °F 51.8 °F 41% 29.97 in 10.0 mi NNE 12.7 mph 21.9 mph N/A   Mostly Cloudy
3:14 PM 77.0 °F 50.0 °F 39% 29.97 in 10.0 mi North 13.8 mph 18.4 mph N/A   Scattered Clouds
3:33 PM 77.0 °F 50.0 °F 39% 29.97 in 10.0 mi NNE 10.4 mph 17.3 mph N/A   Scattered Clouds
3:53 PM 77.0 °F 51.8 °F 41% 29.96 in 10.0 mi North 10.4 mph 20.7 mph N/A   Scattered Clouds
4:13 PM 78.8 °F 50.0 °F 36% 29.96 in 10.0 mi North 12.7 mph 18.4 mph N/A   Scattered Clouds
4:33 PM 78.8 °F 48.2 °F 34% 29.96 in 10.0 mi North 12.7 mph 23.0 mph N/A   Scattered Clouds
4:54 PM 78.8 °F 50.0 °F 36% 29.96 in 10.0 mi North 13.8 mph 20.7 mph N/A   Mostly Cloudy
5:13 PM 78.8 °F 50.0 °F 36% 29.96 in 10.0 mi North 10.4 mph 19.6 mph N/A   Scattered Clouds
5:33 PM 78.8 °F 50.0 °F 36% 29.96 in 10.0 mi North 13.8 mph 18.4 mph N/A   Scattered Clouds
5:54 PM 78.8 °F 50.0 °F 36% 29.95 in 10.0 mi North 11.5 mph - N/A   Clear
6:14 PM 77.0 °F 50.0 °F 39% 29.95 in 10.0 mi North 11.5 mph 18.4 mph N/A   Scattered Clouds
6:33 PM 78.8 °F 50.0 °F 36% 29.95 in 10.0 mi North 13.8 mph 20.7 mph N/A   Scattered Clouds
6:54 PM 78.8 °F 50.0 °F 36% 29.95 in 10.0 mi North 13.8 mph 19.6 mph N/A   Scattered Clouds
7:13 PM 78.8 °F 50.0 °F 36% 29.96 in 10.0 mi North 11.5 mph 17.3 mph N/A   Scattered Clouds
7:33 PM 77.0 °F 51.8 °F 41% 29.96 in 10.0 mi NNE 10.4 mph 17.3 mph N/A   Mostly Cloudy
7:54 PM 75.2 °F 50.0 °F 41% 29.97 in 10.0 mi North 6.9 mph - N/A   Scattered Clouds
8:13 PM 73.4 °F 51.8 °F 47% 29.97 in 10.0 mi NNE 6.9 mph - N/A   Clear
8:33 PM 73.4 °F 51.8 °F 47% 29.97 in 10.0 mi NNE 6.9 mph - N/A   Clear
8:54 PM 71.6 °F 51.8 °F 50% 29.97 in 10.0 mi NE 5.8 mph - N/A   Clear
9:13 PM 71.6 °F 51.8 °F 50% 29.97 in 10.0 mi NNE 4.6 mph - N/A   Clear
9:34 PM 69.8 °F 51.8 °F 53% 29.98 in 10.0 mi NNE 3.5 mph - N/A   Clear
9:54 PM 69.8 °F 51.8 °F 53% 29.99 in 10.0 mi NE 3.5 mph - N/A   Clear
10:13 PM 68.0 °F 51.8 °F 56% 29.99 in 10.0 mi Calm Calm - N/A   Clear
10:34 PM 68.0 °F 51.8 °F 56% 30.00 in 10.0 mi North 3.5 mph - N/A   Clear
10:54 PM 68.0 °F 51.8 °F 56% 30.00 in 10.0 mi NNE 3.5 mph - N/A   Clear
11:13 PM 64.4 °F 51.8 °F 64% 30.01 in 10.0 mi Calm Calm - N/A   Clear
11:34 PM 64.4 °F 51.8 °F 64% 30.01 in 10.0 mi Calm Calm - N/A   Clear
11:54 PM 64.4 °F 53.6 °F 68% 30.01 in 10.0 mi Calm Calm - N/A   Clear